Weather History for Huntsville, AL

Change the Weather History Date:

Friday, December 14, 2012

  Actual Average Record
Temperature  
Mean Temperature 45 °F 44 °F  
Max Temperature 60 °F 54 °F 75 °F (1984)
Min Temperature 30 °F 35 °F 8 °F (1917)
Degree Days  
Heating Degree Days 20 21  
Month to date heating degree days 139 273  
Since 1 July heating degree days 777 800  
Cooling Degree Days 0 0  
Month to date cooling degree days 1 0  
Year to date cooling degree days 2095 1949  
Moisture  
Dew Point 34 °F    
Average Humidity 66    
Maximum Humidity 92    
Minimum Humidity 39    
Precipitation  
Precipitation 0.00 in 0.20 in 4.75 in (1901)
Month to date precipitation 1.31 2.78  
Year to date precipitation 46.77 51.35  
Snow  
Snow 0.00 in - - ()
Month to date snowfall 0.0  
Since 1 July snowfall 0.0  
Snow Depth 0.00 in    
Sea Level Pressure  
Sea Level Pressure 30.27 in    
Wind  
Wind Speed 3 mph (ESE)    
Max Wind Speed 12 mph    
Max Gust Speed 12 mph    
Visibility 10 miles    
Events      
T = Trace of Precipitation, MM = Missing Value Source: NWS Daily Summary

Daily Weather History Graph

Daily Weather History Graph

Search for Another Location

Airport:

Trip Planner

Search our weather history database for the weather conditions in past years. The results will help you decide how hot, cold, wet, or windy it might be!

Date:

Astronomy

Dec. 14, 2012 Rise Set
Actual Time 6:46 AM CST 4:37 PM CST
Civil Twilight 6:18 AM CST 5:05 PM CST
Nautical Twilight 5:47 AM CST 5:37 PM CST
Astronomical Twilight 5:16 AM CST 6:07 PM CST
Moon 7:52 AM CST (12/14) 6:27 PM CST (12/14)
Length of Visible Light 10h 47m
Length of Day
9h 51m
Waxing Crescent, 3% of the Moon is Illuminated
Dec 14
Waxing Crescent
Dec 19
First Quarter
Dec 28
Full
Jan 4
Last Quarter
Jan 11
New

Hourly Weather History & Observations

Time (CST) Temp. Windchill Dew Point Humidity Pressure Visibility Wind Dir Wind Speed Gust Speed Precip Events Conditions
12:53 AM 33.1 °F - 28.0 °F 82% 30.34 in 10.0 mi Calm Calm - N/A   Clear
1:53 AM 32.0 °F - 28.0 °F 85% 30.35 in 10.0 mi Calm Calm - N/A   Clear
2:53 AM 32.0 °F 28.7 °F 27.0 °F 82% 30.33 in 10.0 mi East 3.5 mph - N/A   Clear
3:53 AM 32.0 °F - 27.0 °F 82% 30.35 in 10.0 mi Calm Calm - N/A   Partly Cloudy
4:53 AM 30.9 °F 24.3 °F 27.0 °F 85% 30.32 in 10.0 mi East 6.9 mph - N/A   Partly Cloudy
5:53 AM 30.9 °F - 28.0 °F 89% 30.34 in 10.0 mi Calm Calm - N/A   Clear
6:53 AM 30.9 °F - 28.0 °F 89% 30.37 in 10.0 mi Calm Calm - N/A   Partly Cloudy
7:53 AM 36.0 °F 32.1 °F 30.9 °F 82% 30.36 in 10.0 mi East 4.6 mph - N/A   Partly Cloudy
8:53 AM 42.1 °F 39.2 °F 35.1 °F 76% 30.36 in 10.0 mi ESE 4.6 mph - N/A   Partly Cloudy
9:53 AM 48.9 °F - 37.9 °F 66% 30.34 in 10.0 mi SE 4.6 mph - N/A   Scattered Clouds
10:53 AM 53.1 °F - 37.9 °F 57% 30.33 in 10.0 mi Variable 3.5 mph - N/A   Scattered Clouds
11:53 AM 55.9 °F - 37.9 °F 51% 30.30 in 10.0 mi SE 4.6 mph - N/A   Scattered Clouds
12:53 PM 57.9 °F - 36.0 °F 44% 30.26 in 10.0 mi Calm Calm - N/A   Mostly Cloudy
1:53 PM 60.1 °F - 36.0 °F 41% 30.24 in 10.0 mi Calm Calm - N/A   Mostly Cloudy
2:53 PM 57.9 °F - 37.0 °F 46% 30.22 in 10.0 mi Calm Calm - N/A   Mostly Cloudy
3:53 PM 57.0 °F - 37.9 °F 49% 30.22 in 10.0 mi Calm Calm - N/A   Mostly Cloudy
4:53 PM 54.0 °F - 37.9 °F 55% 30.22 in 10.0 mi SSE 3.5 mph - N/A   Overcast
5:53 PM 51.1 °F - 37.0 °F 59% 30.20 in 10.0 mi ESE 5.8 mph - N/A   Overcast
6:53 PM 50.0 °F - 37.0 °F 61% 30.20 in 10.0 mi East 6.9 mph - N/A   Overcast
7:53 PM 48.9 °F - 37.0 °F 64% 30.18 in 10.0 mi ESE 6.9 mph - N/A   Overcast
8:53 PM 48.9 °F - 37.0 °F 64% 30.17 in 10.0 mi ESE 8.1 mph - N/A   Overcast
9:53 PM 50.0 °F - 37.9 °F 63% 30.16 in 10.0 mi ESE 5.8 mph - N/A   Overcast
10:53 PM 48.0 °F - 37.9 °F 68% 30.16 in 10.0 mi Calm Calm - N/A   Overcast
11:53 PM 46.9 °F - 39.0 °F 74% 30.14 in 10.0 mi West 3.5 mph - N/A   Overcast